Live-Position
3D-Globus wird geladen...
Über Starlink 1402
Group: 3 satellites
Beschreibung wird geladen...
Nächste Überflüge
Passes for default location (London). Set your location on the main map for personalized predictions.
Höhenverlauf
Loading altitude history...
No altitude history available
Zweizeiliger Elementsatz
1 45685U 20035AE 26127.15653904 .00071092 00000-0 10795-2 0 9992
2 45685 53.0409 103.0306 0007911 60.5792 299.6006 15.53928661328417
Epoch: 7. Mai 2026 •
Age: 7 hours
Aktueller Status
Höhe 406.9 km
Geschwindigkeit 7.67 km/s
Subsatellitenpunkt 9.31°N,
110.46°W
Startdatum 4. Juni 2020
Alter 5.9 years
Typ internet
Startgruppe
Falcon 9 •
Launch 7 •
27 satellites
Starlink 1443
45660
Starlink 1446 45663
Starlink 1448 45665
Starlink 1451 45668
Starlink 1452 45669
Starlink 1453 45670
Starlink 1454 45671
Starlink 1456 45673
Starlink 1457 45674
Starlink 1458 45675
Starlink 1460 45676
Starlink 1392 45677
Starlink 1394 45679
Starlink 1404 45686
Starlink 1413 45689
Starlink 1417 45693
Starlink 1420 45695
Starlink 1422 45696
Starlink 1351 45697
Starlink 1400 45700
...and 6 more
Technische Details
Klassifizierung Payload
Masse 260.00 kg
Trockenmasse 248.00 kg
Gesamtmasse 260.00 kg
Länge 0.20 m
Durchmesser 2.80 m
Spannweite 9.00 m
Form Box + pan
Hersteller SPXS
Bus-Typ Starlink
Phasenstatus In Orbit
Besitzer/Staat SPXS/US
Most Searched
Loading...